When you browse on this site, cookies collect data to enhance your experience and personalize the content and advertising you see.
Visit our Privacy Policy to learn more. By continuing to use the site, you agree to this use of cookies and data.
  • în România
  • Lista ţărilor
  • Pe 7 zile
  • Temperatura apei
  • Meteo pe hartă
  • Widget-uri
  • user-avatar
    Intrare

    Meteo pe oră la Oran

    Astăzi, 15 Decembrie, Duminică

    Timp Temperatura Precipitaţii Vânt Presiune Umiditate
    00:00 +13°C° 0 mm 4 m/s 753 mmHg 90%
    01:00 +13°C° 0 mm 4 m/s 753 mmHg 91%
    02:00 +12°C° 0 mm 4 m/s 752 mmHg 91%
    03:00 +12°C° 0 mm 4 m/s 752 mmHg 92%
    04:00 +12°C° 0 mm 3 m/s 752 mmHg 92%
    05:00 +12°C° 0 mm 3 m/s 752 mmHg 91%
    06:00 +13°C° 0 mm 2 m/s 752 mmHg 91%
    07:00 +14°C° 0 mm 2 m/s 752 mmHg 87%
    08:00 +15°C° 0 mm 2 m/s 752 mmHg 83%
    09:00 +16°C° 0 mm 2 m/s 752 mmHg 79%
    10:00 +17°C° 0 mm 2 m/s 752 mmHg 74%
    11:00 +18°C° 0 mm 2 m/s 751 mmHg 69%
    12:00 +20°C° 0 mm 1 m/s 751 mmHg 64%
    13:00 +19°C° 0 mm 2 m/s 751 mmHg 64%
    14:00 +19°C° 0 mm 2 m/s 750 mmHg 63%
    15:00 +19°C° 0 mm 2 m/s 750 mmHg 63%
    16:00 +18°C° 0 mm 2 m/s 750 mmHg 70%
    17:00 +18°C° 0 mm 1 m/s 749 mmHg 76%
    18:00 +16°C° 0 mm 1 m/s 749 mmHg 83%
    19:00 +15°C° 0 mm 1 m/s 749 mmHg 83%
    20:00 +15°C° 0 mm 1 m/s 749 mmHg 83%
    21:00 +15°C° 0 mm 1 m/s 749 mmHg 84%
    22:00 +15°C° 0 mm 1 m/s 749 mmHg 81%
    23:00 +15°C° 0 mm 1 m/s 749 mmHg 78%

    Mâine, 16 Decembrie, Luni

    Timp Temperatura Precipitaţii Vânt Presiune Umiditate
    00:00 +15°C° 0 mm 1 m/s 748 mmHg 75%
    01:00 +15°C° 0 mm 2 m/s 748 mmHg 67%
    02:00 +16°C° 0 mm 2 m/s 747 mmHg 59%
    03:00 +16°C° 0 mm 2 m/s 747 mmHg 51%
    04:00 +16°C° 0 mm 3 m/s 746 mmHg 46%
    05:00 +17°C° 0 mm 4 m/s 746 mmHg 42%
    06:00 +17°C° 0 mm 4 m/s 745 mmHg 37%
    07:00 +17°C° 0 mm 5 m/s 745 mmHg 37%
    08:00 +17°C° 0 mm 6 m/s 745 mmHg 36%
    09:00 +19°C° 0 mm 6 m/s 745 mmHg 36%
    10:00 +21°C° 0 mm 7 m/s 744 mmHg 32%
    11:00 +22°C° 0 mm 7 m/s 744 mmHg 29%
    12:00 +24°C° 0 mm 8 m/s 743 mmHg 26%
    13:00 +23°C° 0 mm 7 m/s 742 mmHg 27%
    14:00 +23°C° 0 mm 6 m/s 741 mmHg 28%
    15:00 +23°C° 0 mm 5 m/s 740 mmHg 30%
    16:00 +22°C° 0 mm 6 m/s 739 mmHg 29%
    17:00 +21°C° 0 mm 7 m/s 739 mmHg 29%
    18:00 +20°C° 0 mm 8 m/s 739 mmHg 28%
    19:00 +19°C° 0 mm 10 m/s 739 mmHg 29%
    20:00 +19°C° 0 mm 11 m/s 739 mmHg 29%
    21:00 +19°C° 0 mm 13 m/s 739 mmHg 30%
    22:00 +17°C° 0 mm 10 m/s 740 mmHg 45%
    23:00 +16°C° 0 mm 7 m/s 740 mmHg 60%

    Poimâine, 17 Decembrie, Marţi

    Timp Temperatura Precipitaţii Vânt Presiune Umiditate
    00:00 +14°C° 0 mm 4 m/s 740 mmHg 76%
    01:00 +14°C° 0 mm 4 m/s 740 mmHg 71%
    02:00 +13°C° 0 mm 4 m/s 739 mmHg 67%
    03:00 +13°C° 0 mm 4 m/s 739 mmHg 63%
    04:00 +13°C° 0 mm 4 m/s 739 mmHg 60%
    05:00 +13°C° 0 mm 4 m/s 739 mmHg 58%
    06:00 +13°C° 0 mm 4 m/s 739 mmHg 55%
    07:00 +11°C° 0.2 mm 6 m/s 740 mmHg 62%
    08:00 +11°C° 0.2 mm 8 m/s 740 mmHg 68%
    09:00 +9°C° 0.2 mm 11 m/s 741 mmHg 75%
    10:00 +10°C° 0.6 mm 13 m/s 741 mmHg 70%
    11:00 +10°C° 0.6 mm 15 m/s 742 mmHg 65%
    12:00 +11°C° 0.6 mm 17 m/s 742 mmHg 60%
    13:00 +11°C° 0 mm 17 m/s 743 mmHg 58%
    14:00 +11°C° 0 mm 16 m/s 743 mmHg 55%
    15:00 +11°C° 0 mm 16 m/s 743 mmHg 52%
    16:00 +11°C° 0 mm 15 m/s 744 mmHg 55%
    17:00 +10°C° 0 mm 14 m/s 745 mmHg 59%
    18:00 +10°C° 0 mm 13 m/s 746 mmHg 62%
    19:00 +10°C° 0 mm 13 m/s 747 mmHg 62%
    20:00 +10°C° 0 mm 12 m/s 748 mmHg 62%
    21:00 +10°C° 0 mm 12 m/s 748 mmHg 62%
    22:00 +10°C° 0 mm 12 m/s 749 mmHg 63%
    23:00 +9°C° 0 mm 12 m/s 749 mmHg 65%

    18 Decembrie, Miercuri

    Timp Temperatura Precipitaţii Vânt Presiune Umiditate
    00:00 +9°C° 0 mm 12 m/s 749 mmHg 66%
    01:00 +9°C° 0 mm 11 m/s 749 mmHg 68%
    02:00 +9°C° 0 mm 11 m/s 750 mmHg 69%
    03:00 +9°C° 0 mm 11 m/s 750 mmHg 71%
    04:00 +9°C° 0 mm 11 m/s 750 mmHg 71%
    05:00 +9°C° 0 mm 10 m/s 750 mmHg 72%
    06:00 +9°C° 0 mm 10 m/s 750 mmHg 73%
    07:00 +10°C° 0.1 mm 9 m/s 751 mmHg 73%
    08:00 +11°C° 0.1 mm 9 m/s 751 mmHg 73%
    09:00 +11°C° 0.1 mm 9 m/s 752 mmHg 73%
    10:00 +12°C° 0.1 mm 9 m/s 752 mmHg 72%
    11:00 +12°C° 0.1 mm 9 m/s 752 mmHg 70%
    12:00 +13°C° 0.1 mm 9 m/s 752 mmHg 69%
    13:00 +15°C° 0 mm 9 m/s 752 mmHg 67%
    14:00 +15°C° 0 mm 8 m/s 752 mmHg 65%
    15:00 +16°C° 0 mm 8 m/s 752 mmHg 63%
    16:00 +15°C° 0 mm 6 m/s 752 mmHg 64%
    17:00 +14°C° 0 mm 4 m/s 752 mmHg 66%
    18:00 +13°C° 0 mm 3 m/s 752 mmHg 68%
    19:00 +13°C° 0 mm 3 m/s 752 mmHg 66%
    20:00 +13°C° 0 mm 3 m/s 752 mmHg 65%
    21:00 +14°C° 0 mm 3 m/s 753 mmHg 63%
    22:00 +14°C° 0 mm 3 m/s 753 mmHg 62%
    23:00 +13°C° 0 mm 3 m/s 752 mmHg 62%

    19 Decembrie, Joi

    Timp Temperatura Precipitaţii Vânt Presiune Umiditate
    00:00 +13°C° 0 mm 3 m/s 752 mmHg 61%
    01:00 +13°C° 0 mm 3 m/s 752 mmHg 62%
    02:00 +13°C° 0 mm 3 m/s 752 mmHg 62%
    03:00 +13°C° 0 mm 3 m/s 752 mmHg 63%
    04:00 +13°C° 0 mm 3 m/s 752 mmHg 60%
    05:00 +13°C° 0 mm 3 m/s 752 mmHg 58%
    06:00 +13°C° 0 mm 4 m/s 752 mmHg 55%
    07:00 +14°C° 0 mm 4 m/s 752 mmHg 53%
    08:00 +15°C° 0 mm 4 m/s 752 mmHg 52%
    09:00 +17°C° 0 mm 3 m/s 752 mmHg 50%
    10:00 +19°C° 0 mm 5 m/s 752 mmHg 46%
    11:00 +21°C° 0 mm 7 m/s 752 mmHg 42%
    12:00 +22°C° 0 mm 8 m/s 752 mmHg 38%
    13:00 +22°C° 0 mm 8 m/s 752 mmHg 39%
    14:00 +22°C° 0 mm 7 m/s 752 mmHg 41%
    15:00 +22°C° 0 mm 7 m/s 751 mmHg 43%
    16:00 +21°C° 0 mm 5 m/s 751 mmHg 49%
    17:00 +19°C° 0 mm 4 m/s 751 mmHg 55%
    18:00 +18°C° 0 mm 3 m/s 751 mmHg 61%
    19:00 +18°C° 0 mm 3 m/s 751 mmHg 57%
    20:00 +18°C° 0 mm 3 m/s 752 mmHg 53%
    21:00 +18°C° 0 mm 4 m/s 752 mmHg 48%
    22:00 +18°C° 0 mm 4 m/s 751 mmHg 47%
    23:00 +17°C° 0 mm 5 m/s 751 mmHg 46%

    20 Decembrie, Vineri

    Timp Temperatura Precipitaţii Vânt Presiune Umiditate
    00:00 +17°C° 0 mm 6 m/s 750 mmHg 45%
    01:00 +17°C° 0 mm 6 m/s 750 mmHg 44%
    02:00 +17°C° 0 mm 6 m/s 749 mmHg 44%
    03:00 +16°C° 0 mm 6 m/s 749 mmHg 44%
    04:00 +16°C° 0 mm 7 m/s 749 mmHg 43%
    05:00 +17°C° 0 mm 8 m/s 748 mmHg 43%
    06:00 +17°C° 0 mm 8 m/s 748 mmHg 42%
    07:00 +17°C° 0 mm 9 m/s 748 mmHg 43%
    08:00 +18°C° 0 mm 10 m/s 747 mmHg 44%
    09:00 +19°C° 0 mm 11 m/s 747 mmHg 44%
    10:00 +20°C° 0 mm 13 m/s 747 mmHg 44%
    11:00 +22°C° 0 mm 15 m/s 747 mmHg 44%
    12:00 +23°C° 0 mm 17 m/s 747 mmHg 43%
    13:00 +22°C° 0 mm 15 m/s 747 mmHg 47%
    14:00 +22°C° 0 mm 14 m/s 747 mmHg 51%
    15:00 +21°C° 0 mm 12 m/s 747 mmHg 56%
    16:00 +19°C° 0.3 mm 12 m/s 747 mmHg 66%
    17:00 +18°C° 0.3 mm 12 m/s 748 mmHg 76%
    18:00 +15°C° 0.3 mm 12 m/s 748 mmHg 86%
    19:00 +15°C° 0.1 mm 12 m/s 749 mmHg 86%
    20:00 +15°C° 0.1 mm 12 m/s 749 mmHg 85%
    21:00 +15°C° 0.1 mm 12 m/s 750 mmHg 85%
    22:00 +16°C° 0 mm 11 m/s 750 mmHg 83%
    23:00 +16°C° 0 mm 11 m/s 750 mmHg 82%
    Arată mai mult